Date,TemperatureHighF,TemperatureAvgF,TemperatureLowF,DewpointHighF,DewpointAvgF,DewpointLowF,HumidityHigh,HumidityAvg,HumidityLow,PressureMaxIn,PressureMinIn,WindSpeedMaxMPH,WindSpeedAvgMPH,GustSpeedMaxMPH,PrecipitationSumIn
2013-1-1,74.0,58.3,44.0,60.0,53.4,44.0,99,86,57,30.21,30.00,13,1,20,0.00
2013-1-2,71.0,61.8,57.0,67.0,60.3,56.0,99,95,84,30.07,29.96,8,2,16,0.02
2013-1-3,58.0,54.1,48.0,58.0,53.9,48.0,99,99,93,30.23,30.05,5,1,11,0.11
2013-1-4,56.0,49.4,46.0,53.0,48.3,45.0,99,96,82,30.31,30.20,6,2,10,0.00
2013-1-5,60.0,50.1,39.0,53.0,47.1,39.0,99,90,73,30.34,30.24,5,0,8,0.00
2013-1-6,61.0,53.4,50.0,56.0,52.2,50.0,99,96,83,30.25,30.14,4,0,6,0.37
2013-1-7,59.0,51.8,44.0,54.0,49.9,42.0,99,93,82,30.29,30.17,11,3,19,0.00
2013-1-8,62.0,57.4,55.0,61.0,56.8,54.0,99,98,95,30.28,30.19,6,1,10,0.11
2013-1-9,67.0,60.9,58.0,67.0,60.9,58.0,99,99,99,30.35,30.23,4,0,6,0.01
2013-1-10,74.0,62.2,58.0,71.0,61.7,58.0,99,98,86,30.36,30.27,3,0,7,0.00
2013-1-11,79.0,66.0,57.0,68.0,62.6,57.0,99,90,54,30.27,30.16,9,2,13,0.01
2013-1-12,79.0,67.5,59.0,69.0,64.3,59.0,99,90,63,30.20,30.11,6,1,11,0.00
2013-1-13,77.0,65.7,57.0,68.0,62.7,57.0,99,91,64,30.17,30.08,8,1,10,0.01
2013-1-14,79.0,67.0,59.0,68.0,62.8,59.0,99,87,57,30.19,30.11,9,2,15,0.00
2013-1-15,78.0,68.1,59.0,68.0,63.9,59.0,99,87,57,30.16,30.06,11,2,13,0.00
2013-1-16,80.0,69.2,60.0,68.0,63.4,59.0,99,84,53,30.09,29.97,10,2,19,0.00
2013-1-17,74.0,58.4,42.0,65.0,54.6,37.0,99,88,68,30.12,29.87,11,3,22,0.01
2013-1-18,55.0,49.0,41.0,47.0,42.5,36.0,95,79,66,30.40,30.12,10,4,19,0.00
2013-1-19,58.0,53.3,47.0,55.0,50.4,43.0,99,90,81,30.37,30.19,8,3,16,0.00
2013-1-20,71.0,57.7,46.0,55.0,51.7,45.0,99,83,47,30.19,30.06,6,0,13,0.00
2013-1-21,67.0,53.7,45.0,53.0,47.5,45.0,99,82,49,30.13,30.02,8,0,10,0.00
2013-1-22,61.0,50.4,38.0,45.0,37.0,34.0,94,63,40,30.29,30.10,7,2,13,0.00
2013-1-23,63.0,44.9,30.0,44.0,36.5,29.0,98,76,44,30.40,30.25,6,1,10,0.00
2013-1-24,72.0,56.1,42.0,55.0,48.6,40.0,95,78,53,30.29,30.16,8,1,15,0.00
2013-1-25,67.0,56.9,52.0,58.0,53.9,51.0,98,90,72,30.32,30.16,8,1,12,0.00
2013-1-26,74.0,66.2,52.0,61.0,59.0,52.0,99,79,61,30.23,30.12,10,1,11,0.00
2013-1-27,63.0,57.8,55.0,59.0,55.2,54.0,99,92,77,30.37,30.22,9,2,16,0.00
2013-1-28,68.0,59.2,50.0,62.0,57.1,50.0,99,93,76,30.38,30.27,6,1,9,0.00
2013-1-29,74.0,64.4,53.0,67.0,62.0,53.0,99,92,74,30.27,30.10,10,2,15,0.00
2013-1-30,81.0,71.4,56.0,67.0,63.3,54.0,97,78,54,30.11,29.76,17,5,26,0.09
2013-1-31,58.0,49.9,36.0,54.0,37.6,34.0,97,65,43,30.24,29.87,10,2,15,0.02
2013-2-1,62.0,46.9,31.0,43.0,36.3,30.0,98,70,40,30.32,30.22,9,1,15,0.00
2013-2-2,64.0,46.5,31.0,47.0,35.1,27.0,98,68,36,30.34,30.14,7,1,10,0.00
2013-2-3,66.0,49.6,35.0,45.0,37.5,34.0,99,67,34,30.17,30.02,6,1,16,0.00
2013-2-4,61.0,47.9,33.0,48.0,41.6,33.0,99,81,47,30.13,30.04,6,0,7,0.00
2013-2-5,70.0,53.8,40.0,52.0,46.7,40.0,99,80,49,30.09,29.99,3,0,9,0.00
2013-2-6,67.0,59.8,55.0,60.0,55.2,50.0,98,85,70,30.14,30.03,4,0,6,0.00
2013-2-7,72.0,63.4,53.0,66.0,61.7,53.0,99,94,75,30.11,29.80,9,2,15,0.02
2013-2-8,67.0,56.8,48.0,66.0,54.6,47.0,99,92,77,30.09,29.80,11,1,15,0.00
2013-2-9,61.0,53.1,46.0,53.0,48.1,44.0,99,84,56,30.27,30.08,9,1,15,0.01
2013-2-10,71.0,61.3,49.0,61.0,55.3,48.0,99,82,61,30.30,30.16,12,3,18,0.00
2013-2-11,78.0,67.8,60.0,65.0,61.5,59.0,98,81,55,30.19,30.06,11,3,17,0.00
2013-2-12,73.0,62.5,60.0,69.0,61.8,59.0,99,98,85,30.08,29.84,12,1,15,0.01
2013-2-13,76.0,70.0,59.0,72.0,64.4,49.0,99,84,52,29.92,29.77,12,4,17,0.13
2013-2-14,58.0,51.5,45.0,56.0,49.1,44.0,98,92,82,30.07,29.90,5,0,9,0.04
2013-2-15,60.0,47.0,34.0,50.0,43.7,34.0,99,89,65,30.09,29.98,5,1,10,0.00
2013-2-16,58.0,45.7,39.0,48.0,42.9,39.0,99,90,60,29.98,29.90,11,1,21,0.01
2013-2-17,52.0,41.6,28.0,27.0,23.4,19.0,87,52,29,30.34,30.22,7,2,17,0.00
2013-2-18,59.0,44.3,23.0,44.0,35.8,22.0,96,75,46,30.40,30.22,5,1,10,0.00
2013-2-19,76.0,59.7,39.0,61.0,51.9,38.0,99,78,47,30.22,29.97,11,3,23,0.00
2013-2-20,63.0,51.9,42.0,56.0,43.0,32.0,99,75,38,30.16,30.05,6,1,11,0.00
2013-2-21,66.0,51.7,35.0,57.0,46.0,35.0,99,83,53,30.15,30.05,4,0,7,0.00
2013-2-22,76.0,67.3,59.0,68.0,64.5,58.0,99,91,68,30.06,29.98,8,1,12,0.03
2013-2-23,79.0,68.2,60.0,68.0,63.9,60.0,99,88,55,29.98,29.85,14,2,22,0.43
2013-2-24,71.0,62.9,58.0,61.0,56.4,49.0,99,82,45,29.99,29.83,6,1,12,0.36
2013-2-25,65.0,59.2,55.0,65.0,58.9,55.0,99,98,89,29.97,29.81,8,2,18,1.42
2013-2-26,77.0,68.4,60.0,68.0,61.6,50.0,99,82,42,29.82,29.65,16,5,34,0.63
2013-2-27,66.0,57.3,51.0,53.0,48.5,43.0,95,74,49,29.97,29.81,10,1,14,0.00
2013-2-28,67.0,56.1,46.0,49.0,44.9,39.0,96,69,44,29.96,29.84,12,2,23,0.00
2013-3-1,59.0,50.4,45.0,42.0,40.0,36.0,82,68,52,29.99,29.90,8,1,14,0.00
2013-3-2,53.0,43.3,33.0,40.0,35.7,32.0,99,76,50,30.01,29.91,8,1,19,0.00
2013-3-3,46.0,37.4,29.0,35.0,31.4,28.0,99,80,55,30.11,29.97,10,1,15,0.00
2013-3-4,62.0,43.8,28.0,44.0,34.3,27.0,98,74,37,30.20,30.10,8,1,15,0.00
2013-3-5,74.0,59.0,38.0,58.0,47.0,37.0,97,68,36,30.16,29.85,13,4,27,0.00
2013-3-6,64.0,50.3,43.0,61.0,39.0,32.0,97,67,43,30.13,29.83,13,3,22,0.05
2013-3-7,57.0,45.2,36.0,46.0,39.4,34.0,99,81,65,30.22,30.12,7,1,9,0.00
2013-3-8,60.0,46.5,34.0,51.0,42.6,34.0,99,87,66,30.24,30.16,6,1,14,0.01
2013-3-9,60.0,48.5,36.0,52.0,44.3,36.0,99,87,63,30.28,30.17,7,1,11,0.00
2013-3-10,71.0,57.1,44.0,59.0,52.5,44.0,99,86,58,30.22,30.14,9,1,13,0.00
2013-3-11,71.0,62.3,50.0,61.0,56.5,50.0,99,82,57,30.14,29.89,15,4,20,0.00
2013-3-12,67.0,62.5,51.0,65.0,58.9,48.0,99,88,60,30.00,29.82,9,2,13,0.05
2013-3-13,69.0,56.2,47.0,48.0,40.7,37.0,95,59,33,30.16,30.00,10,2,15,0.00
2013-3-14,55.0,47.0,36.0,42.0,36.4,32.0,97,68,52,30.29,30.14,9,2,13,0.00
2013-3-15,69.0,49.5,33.0,50.0,40.7,33.0,99,76,37,30.24,30.09,6,1,9,0.01
2013-3-16,78.0,62.1,48.0,53.0,48.6,42.0,95,65,38,30.13,29.97,13,2,21,0.00
2013-3-17,74.0,61.8,46.0,59.0,51.5,45.0,98,72,40,30.10,29.98,10,2,15,0.00
2013-3-18,78.0,66.2,59.0,64.0,59.6,55.0,97,81,53,30.05,29.85,11,1,17,0.00
2013-3-19,78.0,66.4,54.0,64.0,57.8,51.0,96,75,53,30.00,29.85,8,2,18,0.00
2013-3-20,62.0,56.5,46.0,54.0,50.3,45.0,97,80,65,30.04,29.85,10,2,16,0.05
2013-3-21,66.0,50.0,36.0,45.0,37.5,33.0,99,68,29,29.94,29.84,10,1,16,0.01
2013-3-22,61.0,52.3,40.0,50.0,42.6,34.0,91,70,56,30.06,29.92,8,1,11,0.00
2013-3-23,68.0,58.9,53.0,66.0,57.8,50.0,99,96,84,30.00,29.78,8,1,16,2.51
2013-3-24,81.0,69.0,60.0,72.0,65.5,60.0,99,89,61,29.83,29.52,16,4,30,0.26
2013-3-25,68.0,56.9,42.0,62.0,42.4,34.0,85,60,36,30.02,29.59,10,3,21,0.00
2013-3-26,55.0,45.1,36.0,37.0,33.3,29.0,90,64,45,30.24,30.02,10,2,21,0.00
2013-3-27,60.0,41.1,32.0,39.0,34.7,31.0,97,81,43,30.29,30.19,9,1,10,0.00
2013-3-28,62.0,46.0,33.0,48.0,39.4,33.0,99,81,37,30.29,30.20,7,1,11,0.00
2013-3-29,69.0,52.1,37.0,50.0,43.1,37.0,99,77,35,30.32,30.21,7,1,12,0.00
2013-3-30,76.0,59.3,45.0,56.0,47.2,43.0,99,70,31,30.25,30.09,10,2,16,0.00
2013-3-31,78.0,65.6,53.0,58.0,52.7,-99.9,87,67,46,30.12,29.95,15,3,22,0.00
2013-4-1,80.0,68.4,60.0,65.0,61.3,56.0,95,80,52,29.98,29.88,11,2,17,0.01
2013-4-2,73.0,61.6,49.0,58.0,51.3,44.0,99,74,41,30.13,29.98,6,1,11,0.00
2013-4-3,74.0,59.9,49.0,64.0,57.7,49.0,99,93,66,30.11,30.03,8,1,11,0.16
2013-4-4,76.0,67.7,62.0,70.0,65.2,62.0,99,92,74,30.09,29.84,10,2,18,0.10
2013-4-5,65.0,56.4,52.0,64.0,55.6,52.0,99,97,89,30.02,29.82,6,1,12,0.13
2013-4-6,67.0,57.7,47.0,58.0,53.3,47.0,99,86,64,30.18,30.02,8,2,12,0.01
2013-4-7,74.0,64.1,56.0,63.0,58.5,56.0,99,84,59,30.19,30.09,10,2,15,0.00
2013-4-8,78.0,65.2,52.0,66.0,59.4,52.0,99,84,50,30.16,30.09,10,1,12,0.00
2013-4-9,78.0,67.5,56.0,69.0,63.0,56.0,99,87,63,30.19,30.09,10,2,16,0.00
2013-4-10,78.0,69.2,56.0,68.0,64.1,56.0,99,85,66,30.15,30.01,14,2,17,0.00
2013-4-11,81.0,72.4,67.0,72.0,69.4,67.0,99,91,67,30.01,29.82,13,4,24,0.06
2013-4-12,87.0,76.1,70.0,74.0,69.7,64.0,99,83,48,29.88,29.75,14,4,22,0.01
2013-4-13,78.0,68.3,60.0,68.0,56.5,48.0,96,68,43,30.01,29.88,7,1,13,0.00
2013-4-14,70.0,61.9,54.0,67.0,60.7,53.0,99,95,81,30.03,29.89,3,0,8,0.45
2013-4-15,77.0,67.6,62.0,68.0,64.6,62.0,99,91,62,30.13,29.85,7,1,10,0.01
2013-4-16,78.0,69.8,63.0,72.0,66.8,63.0,99,91,74,30.20,30.12,6,1,11,0.00
2013-4-17,77.0,67.7,59.0,70.0,65.8,59.0,99,93,78,30.19,30.11,6,1,10,0.00
2013-4-18,81.0,71.2,62.0,72.0,67.2,62.0,99,88,62,30.11,29.99,10,2,16,0.00
2013-4-19,87.0,75.8,65.0,75.0,69.7,63.0,98,83,50,30.03,29.87,16,4,22,0.26
2013-4-20,64.0,55.5,49.0,63.0,53.4,49.0,99,93,79,30.20,30.00,7,1,14,0.43
2013-4-21,66.0,61.8,57.0,61.0,56.9,52.0,95,84,74,30.21,30.15,9,4,22,0.00
2013-4-22,61.0,58.8,56.0,60.0,55.5,51.0,99,89,73,30.17,30.09,10,4,18,0.48
2013-4-23,65.0,59.8,55.0,58.0,55.9,54.0,99,87,71,30.17,30.07,10,2,12,0.00
2013-4-24,76.0,62.4,48.0,64.0,56.8,48.0,99,84,55,30.15,30.08,8,2,13,0.00
2013-4-25,81.0,67.4,56.0,66.0,61.8,56.0,99,84,47,30.19,30.09,5,0,8,0.00
2013-4-26,72.0,65.2,60.0,66.0,59.8,53.0,99,83,66,30.30,30.16,8,2,15,0.00
2013-4-27,76.0,67.2,59.0,64.0,61.2,58.0,97,82,54,30.28,30.17,6,2,11,0.00
2013-4-28,75.0,68.0,60.0,66.0,60.7,-99.9,99,82,61,30.19,30.00,12,3,18,0.00
2013-4-29,77.0,67.9,62.0,67.0,64.0,61.0,99,89,58,30.03,29.92,16,1,16,1.60
2013-4-30,73.0,64.0,59.0,68.0,62.5,59.0,99,95,79,30.05,29.94,12,1,17,0.05
2013-5-1,70.0,67.2,65.0,68.0,65.6,62.0,99,95,89,30.08,29.99,20,10,30,0.00
2013-5-2,68.0,67.2,66.0,68.0,67.0,66.0,99,99,98,30.03,29.94,16,9,28,0.17
2013-5-3,69.0,66.7,65.0,67.0,65.3,61.0,99,95,78,29.95,29.85,23,11,32,1.66
2013-5-4,69.0,66.1,64.0,67.0,64.6,62.0,99,95,81,29.85,29.74,26,12,33,1.71
2013-5-5,67.0,61.2,59.0,67.0,60.9,56.0,99,98,80,29.87,29.76,14,9,17,0.00
2013-5-6,71.0,62.4,52.0,59.0,52.9,48.0,97,73,49,29.96,29.83,14,5,19,0.00
2013-5-7,76.0,63.9,54.0,60.0,56.5,53.0,97,78,49,30.00,29.89,16,6,23,0.00
2013-5-8,79.0,66.3,53.0,66.0,58.4,53.0,99,79,48,30.09,29.98,15,3,20,0.00
2013-5-9,81.0,70.2,61.0,68.0,62.2,60.0,99,78,50,30.12,30.05,12,4,16,0.00
2013-5-10,82.0,70.9,60.0,71.0,62.0,-99.9,98,79,50,30.12,29.99,15,5,20,0.00
2013-5-11,86.0,73.5,66.0,70.0,66.6,64.0,99,82,50,30.04,29.91,16,5,19,0.11
2013-5-12,82.0,71.5,66.0,70.0,63.7,-99.9,99,80,52,30.01,29.92,14,6,22,0.00
2013-5-13,76.0,66.8,55.0,60.0,51.7,44.0,95,61,36,30.14,29.99,15,5,23,0.00
2013-5-14,74.0,62.4,48.0,55.0,49.6,44.0,96,67,36,30.23,30.14,9,4,12,0.00
2013-5-15,81.0,66.7,53.0,61.0,56.4,52.0,99,73,43,30.22,30.07,13,5,16,0.00
2013-5-16,82.0,64.9,57.0,68.0,41.5,-99.9,99,80,48,30.11,30.02,13,5,18,0.00
2013-5-17,80.0,70.8,62.0,69.0,58.4,-99.9,99,82,58,30.11,30.03,13,4,16,0.00
2013-5-18,80.0,73.9,67.0,72.0,69.2,67.0,99,87,64,30.13,30.03,15,4,20,0.27
2013-5-19,80.0,73.6,68.0,74.0,70.8,68.0,99,91,76,30.09,29.98,14,5,21,0.03
2013-5-20,79.0,72.9,69.0,73.0,70.9,69.0,99,93,75,30.10,30.01,11,4,13,0.03
2013-5-21,79.0,73.1,67.0,74.0,70.0,65.0,99,91,69,30.06,29.96,12,4,17,0.00
2013-5-22,79.0,72.8,65.0,73.0,70.0,65.0,99,91,77,30.00,29.92,8,2,13,0.01
2013-5-23,86.0,74.3,67.0,74.0,69.3,67.0,99,86,53,29.97,29.90,10,3,20,0.17
2013-5-24,86.0,75.3,67.0,70.0,63.6,56.0,99,71,41,30.11,29.93,17,6,21,0.00
2013-5-25,75.0,70.7,62.0,64.0,57.8,54.0,92,65,51,30.27,30.11,16,6,22,0.00
2013-5-26,78.0,65.9,55.0,65.0,57.4,55.0,99,77,47,30.23,30.14,12,4,16,0.00
2013-5-27,79.0,69.9,58.0,67.0,63.1,58.0,99,81,62,30.22,30.14,10,4,16,0.00
2013-5-28,79.0,74.2,65.0,68.0,65.8,64.0,97,76,62,30.20,30.13,14,6,21,0.00
2013-5-29,81.0,75.7,70.0,74.0,70.8,68.0,95,86,72,30.19,30.11,14,6,20,0.00
2013-5-30,81.0,76.7,71.0,74.0,72.6,70.0,98,88,73,30.19,30.11,15,6,23,0.16
2013-5-31,80.0,75.5,68.0,75.0,71.5,68.0,99,88,73,30.17,30.10,18,6,20,0.00
2013-6-1,81.0,76.5,73.0,74.0,72.1,69.0,97,87,69,30.12,30.04,14,6,19,0.06
2013-6-2,82.0,77.8,74.0,75.0,72.8,-99.9,97,88,75,30.07,29.89,19,6,20,0.00
2013-6-3,88.0,77.3,71.0,77.0,73.3,70.0,99,89,59,29.96,29.86,18,4,26,1.66
2013-6-4,83.0,75.7,71.0,77.0,73.8,71.0,99,94,78,30.01,29.93,11,3,13,0.37
2013-6-5,83.0,75.0,72.0,75.0,72.9,71.0,99,94,71,30.01,29.94,14,3,16,0.01
2013-6-6,76.0,73.1,69.0,76.0,72.8,69.0,99,98,91,29.96,29.52,23,7,33,2.10
2013-6-7,85.0,76.1,69.0,75.0,71.9,68.0,99,88,65,29.91,29.51,24,9,31,0.11
2013-6-8,80.0,75.7,71.0,75.0,73.1,71.0,99,92,83,30.06,29.90,11,5,16,0.00
2013-6-9,83.0,77.3,72.0,76.0,73.5,71.0,98,89,73,30.13,30.04,15,4,17,0.03
2013-6-10,87.0,78.8,74.0,77.0,74.4,72.0,99,87,62,30.10,30.00,13,4,22,0.03
2013-6-11,89.0,80.6,73.0,77.0,73.3,70.0,99,81,53,30.08,29.99,9,4,16,0.00
2013-6-12,92.0,80.9,73.0,77.0,73.7,71.0,99,81,50,30.05,29.96,8,4,12,0.00
2013-6-13,88.0,80.1,75.0,78.0,75.1,74.0,97,85,71,29.99,29.84,15,6,16,0.00
2013-6-14,89.0,79.3,75.0,78.0,75.0,71.0,98,88,61,29.95,29.77,14,6,20,0.00
2013-6-15,82.0,78.5,76.0,74.0,68.5,65.0,89,72,59,30.09,29.95,13,5,19,0.00
2013-6-16,83.0,77.6,69.0,73.0,69.8,66.0,97,78,59,30.13,30.06,13,5,17,0.00
2013-6-17,86.0,78.8,74.0,77.0,75.0,72.0,98,89,68,30.09,29.95,12,4,16,0.02
2013-6-18,91.0,80.7,71.0,75.0,71.4,68.0,99,76,47,30.02,29.90,20,7,20,0.00
2013-6-19,90.0,79.0,72.0,77.0,72.7,68.0,99,83,50,30.03,29.92,16,6,27,2.21
2013-6-20,81.0,74.7,71.0,76.0,73.5,71.0,99,96,81,30.11,29.97,14,3,18,0.13
2013-6-22,82.0,75.7,73.0,77.0,74.1,73.0,99,95,76,30.13,30.08,8,1,14,0.77
2013-6-23,82.0,74.7,70.0,78.0,73.5,70.0,99,96,79,30.17,30.09,9,2,15,0.24
2013-6-24,85.0,78.1,72.0,76.0,73.8,70.0,99,87,64,30.20,30.10,14,4,17,0.00
2013-6-25,86.0,78.0,72.0,76.0,73.6,71.0,99,87,67,30.18,30.06,9,2,15,0.07
2013-6-26,86.0,77.8,72.0,78.0,74.8,72.0,99,91,68,30.10,30.01,15,4,17,0.01
2013-6-27,89.0,79.4,70.0,78.0,73.3,69.0,98,83,58,30.04,29.88,12,5,19,0.03
2013-6-28,85.0,76.7,72.0,80.0,74.5,71.0,99,93,76,29.93,29.79,15,7,32,0.48
2013-6-29,83.0,78.9,74.0,78.0,74.8,72.0,98,88,75,29.82,29.75,16,7,31,0.10
2013-6-30,87.0,77.2,73.0,77.0,74.3,72.0,98,92,67,29.87,29.78,17,6,23,0.10
2013-7-1,83.0,74.6,71.0,76.0,73.1,71.0,99,95,79,30.03,29.84,12,5,17,0.36
2013-7-2,81.0,73.3,71.0,76.0,72.7,71.0,99,97,80,30.12,30.00,12,6,21,0.04
2013-7-3,80.0,75.9,72.0,77.0,74.6,72.0,99,96,89,30.17,30.09,14,5,19,0.00
2013-7-4,83.0,78.1,72.0,77.0,74.7,71.0,99,90,79,30.19,30.13,19,8,31,0.05
2013-7-5,83.0,77.2,71.0,77.0,74.4,71.0,99,91,76,30.20,30.14,19,5,25,0.00
2013-7-6,83.0,78.6,73.0,77.0,75.1,73.0,99,90,78,30.17,30.10,17,6,24,0.00
2013-7-7,83.0,78.3,72.0,77.0,74.0,72.0,99,88,72,30.18,30.11,16,5,18,0.00
2013-7-8,85.0,75.5,71.0,77.0,71.6,-99.9,99,91,70,30.21,30.12,13,2,14,0.00
2013-7-9,84.0,75.6,71.0,76.0,73.9,71.0,99,95,71,30.20,30.13,8,1,12,0.00
2013-7-10,80.0,72.1,69.0,76.0,66.8,-99.9,99,90,79,30.13,29.99,8,2,16,0.00
2013-7-11,85.0,76.8,73.0,76.0,73.8,72.0,99,91,72,30.05,29.89,17,6,26,0.29
2013-7-12,83.0,75.6,71.0,77.0,74.3,71.0,99,96,78,29.95,29.89,8,3,11,0.08
2013-7-13,83.0,76.9,72.0,77.0,74.5,71.0,99,93,81,30.04,29.92,10,3,17,0.02
2013-7-14,81.0,75.5,70.0,76.0,73.3,70.0,99,93,81,30.16,30.00,13,4,18,0.00
2013-7-15,83.0,76.8,71.0,79.0,74.6,71.0,99,93,81,30.20,30.13,20,4,22,0.16
2013-7-16,83.0,79.6,77.0,77.0,75.9,75.0,96,89,77,30.24,30.17,13,5,19,0.00
2013-7-17,83.0,78.5,73.0,76.0,74.8,72.0,99,89,74,30.24,30.13,13,3,15,0.00
2013-7-18,84.0,77.3,69.0,77.0,72.3,69.0,99,86,65,30.16,30.08,10,3,14,0.00
2013-7-19,84.0,75.8,72.0,76.0,73.4,71.0,99,93,69,30.14,30.06,9,2,18,0.06
2013-7-20,86.0,74.2,71.0,76.0,71.0,-99.9,99,92,65,30.11,30.03,8,2,16,0.31
2013-7-21,86.0,74.9,70.0,78.0,73.1,70.0,99,94,73,30.11,30.03,11,4,29,0.49
2013-7-22,86.0,73.7,69.0,76.0,72.3,69.0,99,95,65,30.10,30.03,13,5,16,0.59
2013-7-23,87.0,75.4,70.0,76.0,72.8,70.0,99,92,69,30.04,29.91,16,7,20,0.01
2013-7-24,82.0,74.4,69.0,73.0,70.8,68.0,99,89,71,29.92,29.81,14,7,21,0.00
2013-7-25,85.0,74.8,68.0,75.0,71.0,68.0,99,89,59,29.97,29.83,13,5,14,0.00
2013-7-26,85.0,77.0,70.0,79.0,74.8,70.0,99,93,78,30.04,29.95,8,2,13,0.00
2013-7-27,86.0,79.2,74.0,79.0,76.8,74.0,99,93,71,30.03,29.90,11,2,16,0.68
2013-7-28,86.0,77.1,72.0,79.0,75.1,72.0,99,94,70,30.06,29.93,11,2,14,0.26
2013-7-29,83.0,76.3,73.0,80.0,75.3,73.0,99,96,84,30.14,30.04,5,2,8,0.00
2013-9-14,81.0,77.8,76.0,80.0,77.4,75.0,99,98,97,30.01,29.92,8,2,9,0.34
2013-9-15,89.0,77.8,74.0,81.0,73.8,-99.9,99,91,74,30.11,30.01,13,2,12,0.00
2013-9-16,88.0,80.7,75.0,81.0,77.6,75.0,99,91,71,30.12,30.03,8,2,16,0.00
2013-9-17,84.0,78.3,74.0,80.0,76.8,74.0,99,95,78,30.14,30.03,16,5,26,0.73
2013-9-18,79.0,77.6,76.0,77.0,76.2,75.0,99,96,91,30.11,30.06,20,10,29,1.88
2013-9-22,83.0,74.2,72.0,78.0,71.5,-99.9,99,95,84,29.86,29.75,9,4,24,1.44
2013-9-23,79.0,75.7,73.0,78.0,75.5,73.0,99,99,95,29.98,29.85,12,2,16,0.47
2013-9-24,79.0,76.9,75.0,79.0,76.7,75.0,99,99,96,29.97,29.83,11,3,21,0.69
2013-9-25,82.0,76.2,74.0,80.0,76.1,74.0,99,99,95,29.83,29.76,8,3,11,0.56
2013-9-26,73.0,70.0,66.0,73.0,69.7,66.0,99,98,95,29.93,29.75,9,5,15,0.21
2013-9-27,77.0,71.7,65.0,73.0,69.5,65.0,99,93,84,30.03,29.91,16,8,24,0.00
2013-9-28,76.0,74.0,71.0,74.0,70.7,68.0,99,90,78,30.11,30.00,14,8,23,0.23
2013-9-29,78.0,73.3,70.0,73.0,67.5,-99.9,97,86,79,30.06,29.99,16,9,22,0.00
2013-9-30,78.0,74.7,67.0,71.0,66.9,63.0,99,77,63,30.06,30.00,13,5,18,0.00
2013-10-1,73.0,71.8,71.0,69.0,68.3,67.0,95,89,82,30.11,30.06,5,2,9,0.00
2013-10-2,79.0,71.4,63.0,73.0,68.5,63.0,99,91,78,30.13,30.07,14,4,17,0.00
2013-10-3,82.0,74.0,66.0,77.0,72.3,66.0,99,95,83,30.12,30.05,13,4,15,0.00
2013-10-4,82.0,76.4,70.0,79.0,74.7,70.0,99,95,85,30.13,30.05,12,3,17,0.00
2013-10-5,81.0,75.6,69.0,77.0,74.1,69.0,99,95,83,30.11,30.03,12,3,15,0.00
2013-10-19,86.0,77.7,72.0,79.0,75.5,72.0,99,93,69,29.97,29.88,8,2,12,0.78
2013-10-20,75.0,70.2,67.0,72.0,65.5,-99.9,99,88,76,30.02,29.91,11,4,17,0.03
2013-10-21,77.0,73.9,69.0,76.0,73.1,69.0,99,97,95,30.06,29.98,11,4,17,0.00
2013-10-22,76.0,73.3,69.0,76.0,73.1,69.0,99,99,97,30.00,29.84,8,4,12,0.37
2013-10-23,77.0,67.4,58.0,68.0,62.5,52.0,99,86,49,30.03,29.82,12,6,25,0.01
2013-10-24,70.0,59.6,53.0,58.0,52.1,46.0,99,77,59,30.19,30.05,10,4,15,0.00
2013-10-25,71.0,65.0,55.0,57.0,54.3,51.0,99,69,52,30.26,30.18,12,6,17,0.00
2013-10-26,68.0,59.9,53.0,60.0,56.5,52.0,99,89,72,30.25,30.14,11,4,16,0.00
2013-10-27,72.0,56.5,47.0,57.0,49.1,-99.9,99,83,46,30.16,30.10,7,2,11,0.00
2013-10-28,74.0,57.9,53.0,62.0,52.4,-99.9,99,91,62,30.23,30.11,6,2,10,0.00
2013-10-29,74.0,67.7,62.0,69.0,65.3,61.0,99,93,79,30.27,30.23,14,5,16,0.00
2013-10-30,76.0,67.4,59.0,72.0,65.3,59.0,99,93,81,30.27,30.19,13,3,18,0.00
2013-10-31,83.0,73.6,64.0,75.0,69.7,64.0,99,88,68,30.19,30.00,15,5,16,0.00
2013-11-1,82.0,76.1,72.0,75.0,72.6,71.0,98,90,74,30.01,29.81,12,7,19,0.00
2013-11-2,78.0,67.8,57.0,76.0,66.1,57.0,99,94,67,29.97,29.78,13,5,17,0.61
2013-11-3,68.0,60.6,54.0,60.0,52.8,-99.9,99,80,61,30.22,29.96,14,8,24,0.00
2013-11-4,72.0,66.0,56.0,66.0,62.0,54.0,96,87,65,30.29,30.20,25,12,31,0.00
2013-11-5,68.0,65.8,62.0,68.0,65.6,62.0,99,98,93,30.29,30.22,25,11,31,0.43
2013-11-7,81.0,71.4,67.0,72.0,69.1,67.0,99,93,64,30.09,29.98,10,3,19,0.00
2013-11-8,68.0,59.9,54.0,64.0,53.8,51.0,91,80,69,30.22,30.05,24,9,27,0.00
2013-11-9,71.0,64.8,57.0,66.0,59.4,-99.9,99,89,76,30.26,30.19,13,6,19,0.00
2013-11-10,74.0,65.9,57.0,68.0,63.8,57.0,99,93,77,30.23,30.14,9,3,14,0.00
2013-11-11,72.0,62.9,55.0,68.0,61.6,55.0,99,95,74,30.19,30.14,12,4,15,0.00
2013-11-12,74.0,66.5,62.0,67.0,60.2,-99.9,99,88,61,30.16,30.04,11,4,27,0.00
2013-11-13,62.0,52.5,47.0,53.0,45.7,40.0,88,78,68,30.42,30.16,22,13,31,0.00
2013-11-14,62.0,48.1,45.0,59.0,46.3,41.0,97,94,84,30.40,30.33,12,9,22,0.00
2013-11-17,77.0,73.0,70.0,75.0,72.5,70.0,99,98,93,30.03,30.01,7,3,10,0.00
2013-11-18,78.0,72.6,70.0,77.0,72.6,70.0,99,99,98,30.03,29.89,7,4,13,0.21
2013-11-19,73.0,63.2,56.0,73.0,56.9,49.0,99,80,67,30.07,29.93,17,10,28,0.00
2014-1-1,61.0,57.6,54.0,61.0,57.2,53.0,99,98,96,30.32,30.10,7,3,11,0.50
2014-1-2,65.0,60.7,54.0,65.0,60.7,52.0,99,99,93,30.09,29.76,24,4,29,1.85